Weather History for KASH - November, 2012

Change the Weather History Date:

Wednesday, November 21, 2012

  Actual Average Record
Temperature  
Mean Temperature 39 °F -  
Max Temperature 48 °F 45 °F 67 °F (1953)
Min Temperature 30 °F 25 °F 13 °F (1967)
Degree Days  
Heating Degree Days 26    
Moisture  
Dew Point 29 °F    
Average Humidity 76    
Maximum Humidity 93    
Minimum Humidity 48    
Precipitation  
Precipitation 0.00 in - - ()
Sea Level Pressure  
Sea Level Pressure 30.25 in    
Wind  
Wind Speed 2 mph (NNW)    
Max Wind Speed 7 mph    
Max Gust Speed -    
Visibility 10 miles    
Events      
Averages and records for this station are not official NWS values.
T = Trace of Precipitation, MM = Missing Value Source: NWS Daily Summary

Daily Weather History Graph

Daily Weather History Graph

Search for Another Location

Airport or City:

Trip Planner

Search our weather history database for the weather conditions in past years. The results will help you decide how hot, cold, wet, or windy it might be!

Date:

Astronomy

Nov. 21, 2012 Rise Set
Actual Time 6:45 AM EST 4:17 PM EST
Civil Twilight 6:14 AM EST 4:48 PM EST
Nautical Twilight 5:40 AM EST 5:23 PM EST
Astronomical Twilight 5:06 AM EST 5:57 PM EST
Moon 12:40 PM EST (11/21) No Moon Set
Length of Visible Light 10h 33m
Length of Day
9h 31m
First Quarter, 61% of the Moon is Illuminated
Nov 21
First Quarter
Nov 28
Full
Dec 6
Last Quarter
Dec 13
New
Dec 20
First Quarter

Hourly Weather History & Observations

Time (EST) Temp. Windchill Dew Point Humidity Pressure Visibility Wind Dir Wind Speed Gust Speed Precip Events Conditions
12:51 AM 32.0 °F - 27.1 °F 82% 30.20 in 10.0 mi Calm Calm - N/A   Clear
1:51 AM 31.1 °F - 26.1 °F 82% 30.21 in 10.0 mi Calm Calm - N/A   Clear
2:51 AM 31.1 °F 27.7 °F 26.1 °F 82% 30.20 in 10.0 mi NNW 3.5 mph - N/A   Clear
3:51 AM 30.0 °F - 26.1 °F 85% 30.21 in 10.0 mi Calm Calm - N/A   Clear
4:51 AM 30.0 °F 26.5 °F 26.1 °F 85% 30.22 in 10.0 mi NNW 3.5 mph - N/A   Clear
5:51 AM 32.9 °F - 25.2 °F 73% 30.23 in 10.0 mi Calm Calm - N/A   Clear
6:51 AM 31.1 °F - 26.1 °F 82% 30.26 in 10.0 mi Calm Calm - N/A   Clear
7:51 AM 32.0 °F - 26.1 °F 79% 30.27 in 10.0 mi Calm Calm - N/A   Clear
8:51 AM 36.9 °F - 26.1 °F 65% 30.27 in 10.0 mi Calm Calm - N/A   Partly Cloudy
9:51 AM 41.9 °F 37.5 °F 27.1 °F 56% 30.27 in 10.0 mi North 6.9 mph - N/A   Clear
11:51 AM 46.9 °F - 28.0 °F 48% 30.25 in 10.0 mi North 3.5 mph - N/A   Scattered Clouds
12:51 PM 47.8 °F - 30.0 °F 50% 30.24 in 10.0 mi NW 4.6 mph - N/A   Partly Cloudy
1:51 PM 48.9 °F - 32.0 °F 52% 30.24 in 10.0 mi NNW 5.8 mph - N/A   Mostly Cloudy
2:51 PM 48.9 °F - 34.9 °F 58% 30.24 in 10.0 mi NNE 4.6 mph - N/A   Mostly Cloudy
3:51 PM 47.8 °F - 36.0 °F 63% 30.25 in 10.0 mi Calm Calm - N/A   Clear
4:51 PM 41.0 °F - 34.9 °F 79% 30.25 in 10.0 mi Calm Calm - N/A   Clear
5:51 PM 37.9 °F - 32.0 °F 79% 30.26 in 10.0 mi Calm Calm - N/A   Clear
6:51 PM 34.9 °F 32.0 °F 31.1 °F 86% 30.28 in 10.0 mi NW 3.5 mph - N/A   Partly Cloudy
7:51 PM 34.0 °F 28.8 °F 31.1 °F 89% 30.30 in 10.0 mi NNW 5.8 mph - N/A   Clear
8:51 PM 31.1 °F 27.7 °F 29.1 °F 92% 30.30 in 10.0 mi NW 3.5 mph - N/A   Clear
9:51 PM 31.1 °F 26.4 °F 29.1 °F 92% 30.29 in 9.0 mi NW 4.6 mph - 0.00 in   Clear
10:51 PM 32.0 °F 26.4 °F 29.1 °F 89% 30.29 in 10.0 mi NW 5.8 mph - 0.00 in   Clear
11:32 PM 30.2 °F 25.4 °F 28.4 °F 93% 30.27 in 8.0 mi NNW 4.6 mph - N/A   Mostly Cloudy
11:51 PM 32.0 °F 26.4 °F 29.1 °F 89% 30.28 in 10.0 mi NW 5.8 mph - N/A   Overcast